TIME,DELAY(SENSOR),PRES,T(CTD),SAL,OXYGEN,RAWTEMP,T(OPTODE),TCPHASE,TURBIDITY,TURBIDITY_GAIN,FLUOR,BETA,CDOM,ED411.5,ED443.8,ED489.6,PAR,COMP,TILT,TILTY(TILT),CHECK
1341740568,6467,230.5299987792968800,4.9114999771118160,34.9860992431640600,350.4678955078125000,761.5175781250000000,4.8831520080566410,34.0886802673339840,16,3,49,102,64,2147245526,2147562193,2147572456,2147359565,1006,0,-12,46090
1341740629,6468,227.2100067138672000,4.9112000465393070,34.9861984252929700,350.4090881347656000,761.5153808593750000,4.8832302093505860,34.0905799865722660,16,3,48,101,64,2147245508,2147560694,2147571085,2147360410,226,0,-12,18245
1341740690,6468,223.9199981689453000,4.9107999801635740,34.9863014221191400,350.4230041503906000,761.5156860351562000,4.8832211494445800,34.0903205871582000,16,3,48,101,64,2147246042,2147560338,2147570724,2147361887,2915,0,-12,31164
1341740751,6466,220.5399932861328000,4.9109001159667970,34.9858016967773440,350.3812866210937500,761.5189208984375000,4.8831062316894530,34.0918197631835940,16,3,48,102,62,2147244937,2147558714,2147572191,2147361769,2259,0,-12,8667
1341740812,6504,217.1499938964843800,4.9105000495910645,34.9860000610351560,350.5227966308594000,761.5263061523438000,4.8828492164611820,34.0870285034179700,16,3,49,101,64,2147243305,2147560086,2147571830,2147359437,1760,0,-12,21409
1341740873,6467,213.7799987792968800,4.9105000495910645,34.9859008789062500,350.4220886230469000,761.5274047851562000,4.8828091621398930,34.0905494689941400,16,3,50,104,64,2147244470,2147560182,2147572739,2147361170,1276,0,-12,39548
1341740934,6467,210.4400024414062500,4.9098000526428220,34.9864006042480500,350.5083923339844000,761.5352783203125000,4.8825340270996090,34.0877494812011700,16,3,49,104,64,2147247514,2147562280,2147573590,2147361851,776,0,-12,54832
1341740995,6504,207.1499938964843800,4.9098000526428220,34.9860992431640600,350.5521850585937500,761.5388793945312000,4.8824062347412110,34.0863990783691400,53,3,48,100,64,2147242248,2147559057,2147572602,2147360928,3547,0,-12,52715
1341741056,6467,203.9199981689453000,4.9093999862670900,34.9863014221191400,350.6926879882812500,761.5479125976562000,4.8820929527282715,34.0815315246582000,16,3,49,100,64,2147244383,2147562632,2147575574,2147361046,2725,0,-12,48087
1341741117,6468,200.7200012207031200,4.9095997810363770,34.9860000610351560,350.6517944335937500,761.5513916015625000,4.8819689750671390,34.0834007263183600,16,3,48,104,64,2147244260,2147562372,2147574861,2147360986,2169,0,-12,15539
1341741180,6468,197.4499969482422000,4.9095001220703125,34.9860000610351560,350.5392150878906000,761.5571289062500000,4.8817710876464840,34.0873184204101560,16,3,49,104,64,2147243707,2147558431,2147575560,2147360895,1660,0,-12,61811
1341741241,6467,194.3300018310547000,4.9088001251220700,34.9863014221191400,350.5450134277344000,761.5629882812500000,4.8815631866455080,34.0871696472168000,16,3,49,105,63,2147245243,2147560854,2147574262,2147359963,1093,0,-12,58449
1341741304,6467,191.1300048828125000,4.9088001251220700,34.9861984252929700,350.6206054687500000,761.5701904296875000,4.8813099861145020,34.0846595764160160,16,3,48,104,64,2147244346,2147563569,2147574641,2147360122,327,0,-12,17155
1341741365,6468,188.0500030517578000,4.9086999893188480,34.9860992431640600,350.6470947265625000,761.5742797851562000,4.8811678886413570,34.0838203430175800,16,3,49,104,64,2147246395,2147558811,2147576758,2147362399,2990,0,-12,9072
1341741428,6468,184.9199981689453000,4.9085001945495605,34.9860992431640600,350.5487060546875000,761.5764770507812000,4.8810877799987790,34.0870895385742200,16,3,48,104,64,2147244018,2147559638,2147575336,2147362897,2341,0,-12,50796
1341741489,6504,181.9299926757812500,4.9085998535156250,34.9856986999511700,350.6160888671875000,761.5814208984375000,4.8809189796447750,34.0851402282714840,16,3,49,103,64,2147241892,2147560598,2147577352,2147362893,1788,0,-12,13226
1341741552,6468,178.8699951171875000,4.9081001281738280,34.9863014221191400,350.7192077636719000,761.5883789062500000,4.8806719779968260,34.0815010070800800,16,3,50,106,62,2147242953,2147555364,2147579551,2147359656,1289,0,-12,65424
1341741613,6467,175.9400024414062500,4.9078001976013180,34.9865989685058600,350.6709899902344000,761.5866699218750000,4.8807349205017090,34.0831718444824200,16,3,50,108,64,2147244877,2147563213,2147577873,2147360749,848,0,-12,2923
1341741676,6469,172.9400024414062500,4.9078001976013180,34.9863014221191400,350.6496887207031000,761.5933227539062000,4.8805031776428220,34.0839996337890600,110,3,49,103,64,2147244804,2147562737,2147578143,2147361453,170,0,-12,12151
1341741737,6468,170.0899963378906200,4.9077000617980960,34.9863014221191400,350.3973999023437500,761.5974121093750000,4.8803558349609375,34.0927391052246100,16,3,50,107,64,2147243986,2147563962,2147577654,2147361650,3046,0,-12,11838
1341741800,6468,167.1600036621093800,4.9078001976013180,34.9860000610351560,350.5340881347656000,761.5996704101562000,4.8802800178527830,34.0881881713867200,16,3,49,107,64,2147246257,2147560790,2147578989,2147362399,2490,0,-12,26444
1341741861,6468,164.3699951171875000,4.9077000617980960,34.9859008789062500,350.5185852050781000,761.6018066406250000,4.8802051544189450,34.0885887145996100,16,3,48,104,64,2147245055,2147558253,2147581563,2147362129,1972,0,-12,18969
1341741924,6468,161.5599975585937500,4.9071002006530760,34.9864997863769500,350.5068054199219000,761.6093750000000000,4.8799381256103520,34.0893211364746100,31,3,48,107,64,2147242979,2147561984,2147583707,2147361119,1503,0,-12,30156
1341741985,6468,158.8999938964843800,4.9074997901916500,34.9858016967773440,350.5054931640625000,761.6104736328125000,4.8799018859863280,34.0891990661621100,16,3,50,110,63,2147242298,2147562290,2147586189,2147361324,1089,0,-12,36186
1341742048,6468,156.1900024414062500,4.9070000648498535,34.9863014221191400,350.5899047851562500,761.6135253906250000,4.8797969818115230,34.0866203308105500,16,3,48,112,64,2147244383,2147560205,2147589471,2147360809,494,0,-12,12440
1341742109,6469,153.5800018310547000,4.9068999290466310,34.9863014221191400,350.5299072265625000,761.6170043945312000,4.8796730041503910,34.0885009765625000,16,3,50,108,63,2147243647,2147562463,2147588374,2147363368,3331,0,-12,35639
1341742172,6504,150.9199981689453000,4.9065999984741210,34.9864997863769500,350.4299011230469000,761.6196289062500000,4.8795800209045410,34.0919609069824200,12,3,49,108,64,2147245951,2147562075,2147587702,2147365110,2669,0,-12,15609
1341742233,6469,148.4199981689453000,4.9067001342773440,34.9861984252929700,350.4296875000000000,761.6248168945312000,4.8794021606445310,34.0921096801757800,16,3,50,109,64,2147243995,2147562157,2147591199,2147366124,2148,0,-12,6118
1341742296,6503,145.8500061035156200,4.9067997932434080,34.9856986999511700,350.4142150878906000,761.6254272460938000,4.8793787956237790,34.0927391052246100,16,3,50,108,64,2147243300,2147561777,2147594326,2147366788,1777,0,-12,59819
1341742357,6468,143.3699951171875000,4.9065999984741210,34.9859008789062500,350.5880126953125000,761.6309204101562000,4.8791851997375490,34.0869293212890600,16,3,48,110,64,2147247350,2147563405,2147597110,2147365535,1434,0,-12,27326
1341742420,6466,140.8300018310547000,4.9064002037048340,34.9861984252929700,350.3999023437500000,761.6284790039062000,4.8792710304260250,34.0932197570800800,16,3,50,109,64,2147246166,2147560164,2147598674,2147367844,1004,0,-12,60488
1341742481,6468,138.3800048828125000,4.9065999984741210,34.9859008789062500,350.4529113769531000,761.6323852539062000,4.8791289329528810,34.0916099548339840,16,3,50,108,64,2147242861,2147562445,2147598171,2147367030,505,0,-12,35260
1341742544,6469,135.8699951171875000,4.9063000679016110,34.9860992431640600,350.4984130859375000,761.6348876953125000,4.8790440559387210,34.0901603698730500,16,3,50,110,64,2147242523,2147561024,2147599446,2147364644,3434,0,-12,15666
1341742605,6468,133.3800048828125000,4.9063000679016110,34.9863014221191400,350.3927001953125000,761.6320190429688000,4.8791480064392090,34.0933494567871100,16,3,50,113,64,2147245814,2147561388,2147598038,2147365915,2786,0,-12,51836
1341742668,6468,130.6600036621093800,4.9065999984741210,34.9861984252929700,350.4381103515625000,761.6254272460938000,4.8793787956237790,34.0919799804687500,13,3,49,110,64,2147247309,2147562779,2147597046,2147364667,2311,0,-12,11213
1341742729,6467,127.9100036621093800,4.9074001312255860,34.9852981567382800,350.4244079589844000,761.6262817382812000,4.8793449401855470,34.0921783447265600,28,3,50,112,64,2147246916,2147563030,2147604424,2147362445,1963,0,-12,10100
1341742792,6468,124.9100036621093800,4.9064002037048340,34.9861984252929700,350.2833862304687500,761.6295166015625000,4.8792362213134770,34.0970497131347660,13,3,49,113,64,2147245376,2147564136,2147612163,2147367981,1636,0,-12,27103
1341742853,6468,121.8799972534179700,4.9060001373291020,34.9865989685058600,350.3785095214844000,761.6256713867188000,4.8793678283691410,34.0937995910644500,16,3,50,116,64,2147245695,2147565073,2147621731,2147368548,1231,0,-12,36951
1341742916,6469,118.7300033569336000,4.9064002037048340,34.9860000610351560,350.4068908691406000,761.6298828125000000,4.8792209625244140,34.0932617187500000,16,3,49,115,64,2147249517,2147568602,2147632186,2147370618,726,0,-12,56464
1341742977,6468,115.6500015258789000,4.9064998626708980,34.9863014221191400,350.2658081054687500,761.6215209960938000,4.8795151710510250,34.0976295471191400,16,3,49,113,66,2147244484,2147569996,2147641919,2147373128,101,0,-12,53202
1341743040,6468,112.5699996948242200,4.9065999984741210,34.9863014221191400,350.3540039062500000,761.6143188476562000,4.8797659873962400,34.0943183898925800,16,3,50,113,64,2147246203,2147571757,2147653997,2147372946,3146,0,-12,55342
1341743101,6468,109.6600036621093800,4.9067001342773440,34.9860992431640600,350.2217102050781000,761.6174926757812000,4.8796539306640625,34.0987396240234400,16,3,50,121,64,2147247222,2147575442,2147667121,2147374673,2579,0,-12,58741
1341743164,6468,106.8000030517578100,4.9072999954223630,34.9863014221191400,350.3239135742187500,761.5985717773438000,4.8803157806396480,34.0950889587402340,17,3,50,114,64,2147249727,2147578079,2147680744,2147377297,2144,0,-12,968
1341743225,6503,104.1200027465820300,4.9092001914978030,34.9855003356933600,350.3113098144531000,761.5678710937500000,4.8813920021057130,34.0949287414550800,16,3,50,115,65,2147246390,2147580676,2147695149,2147380867,1753,0,-12,9541
1341743288,6468,101.4499969482421900,4.9096999168396000,34.9858016967773440,350.0805053710937500,761.5405883789062000,4.8823451995849610,34.1023292541503900,16,3,50,115,64,2147247222,2147582093,2147712210,2147383652,1365,0,-12,47996
1341743349,6469,98.9800033569336000,4.9105000495910645,34.9856986999511700,349.9719848632812500,761.5145874023438000,4.8832588195800780,34.1054916381835940,16,3,49,117,64,2147250610,2147588457,2147736964,2147388593,1057,0,-12,64190
1341743412,6467,96.4899978637695300,4.9114999771118160,34.9858016967773440,349.8370056152344000,761.4857177734375000,4.8842701911926270,34.1092109680175800,16,3,50,119,64,2147249082,2147593100,2147766244,2147392772,558,0,-12,29547
1341743473,6467,94.1299972534179700,4.9123001098632810,34.9856986999511700,349.8286132812500000,761.4652709960938000,4.8849830627441410,34.1095008850097660,16,3,50,150,64,2147248086,2147596608,2147780361,2147393992,34,0,-12,15201
1341743563,6466,89.9300003051757800,4.9152998924255370,34.9855995178222660,349.6889953613281000,761.3917846679688000,4.8875560760498050,34.1123695373535160,16,3,50,122,63,2147247209,2147608040,2147834715,2147405919,2620,0,-12,48670
1341743624,6468,86.1800003051757800,4.9162001609802250,34.9855003356933600,349.8103942871094000,761.3624267578125000,4.8885879516601560,34.1079406738281250,16,3,50,123,64,2147252164,2147620521,2147890518,2147415282,1921,0,-12,13004
1341743687,6466,82.3099975585937500,4.9193000793457030,34.9852981567382800,349.6304016113281000,761.2651977539062000,4.8919892311096190,34.1116714477539060,16,3,50,129,64,2147256544,2147635432,2147943889,2147425229,1267,0,-12,39912
1341743748,6468,78.6200027465820300,4.9333000183105470,34.9846992492675800,349.5278015136719000,760.8989868164062000,4.9048061370849610,34.1080894470214840,16,3,50,127,64,2147256607,2147643048,2147977394,2147436717,419,0,-12,61104
1341743836,6467,73.9100036621093800,4.9665999412536620,34.9845008850097660,349.1760864257812500,760.0241699218750000,4.9354228973388670,34.1025390625000000,14,3,51,125,64,2147262912,2147667766,2148079711,2147457947,2813,0,-12,1882
1341743897,6468,71.5500030517578100,4.9695000648498535,34.9849014282226560,349.1581115722656000,759.8629760742188000,4.9410610198974610,34.1000518798828100,20,3,52,125,65,2147266139,2147680305,2148129306,2147470381,2320,0,-12,20042
1341743960,6465,69.2699966430664000,4.9724998474121090,34.9850997924804700,349.2898864746094000,759.7584228515625000,4.9447212219238280,34.0937881469726560,16,3,52,122,65,2147269087,2147680429,2148111560,2147474244,1894,0,-12,29228
1341744021,6468,67.0800018310546900,4.9885997772216800,34.9854011535644500,349.1260070800781000,759.3494873046875000,4.9590258598327640,34.0910682678222660,16,3,53,141,64,2147274262,2147689444,2148148059,2147482824,1475,0,-12,57980
1341744109,6468,63.2299995422363300,5.0420999526977540,34.9841003417968750,348.8388061523437500,757.9063720703125000,5.0094890594482420,34.0724716186523440,16,3,54,143,66,2147289037,2147745914,2148350833,2147536200,710,0,-12,16497
1341744170,6468,59.7299995422363300,5.0496997833251950,34.9864006042480500,349.0202026367187500,757.5891723632812000,5.0205760002136230,34.0602302551269500,16,3,55,141,66,2147300639,2147772420,2148419456,2147560790,3242,0,-12,58167
1341744233,6467,56.0699996948242200,5.1614999771118160,34.9850997924804700,348.2427062988281000,754.7941894531250000,5.1182141304016110,34.0312500000000000,16,3,71,140,65,2147324936,2147835235,2148628095,2147618335,2260,0,-12,64453
1341744294,6467,52.6699981689453100,5.2177000045776370,34.9905014038085940,348.4866027832031000,752.8812866210938000,5.1849651336669920,33.9855690002441400,16,3,74,145,65,2147352292,2147895542,2148812557,2147675588,1683,0,-12,41386
1341744357,6465,49.2999992370605500,5.2522997856140140,34.9921989440918000,348.9945983886719000,751.8336791992188000,5.2215042114257810,33.9481811523437500,15,3,80,156,66,2147382797,2147959908,2148995962,2147742706,1137,0,-12,54834
1341744418,6466,46.1599998474121100,5.3199000358581540,34.9934997558593750,349.1036071777344000,749.8690185546875000,5.2899799346923830,33.9058494567871100,17,3,98,156,65,2147418920,2148020900,2149154582,2147807441,501,0,-12,54152
1341744481,6467,43.0600013732910160,5.3812999725341800,34.9954986572265600,349.7015075683594000,748.1212768554688000,5.3508429527282715,33.8517990112304700,19,3,114,171,66,2147468717,2148091670,2149333558,2147886157,2746,0,-12,15427
1341744542,6467,40.2299995422363300,5.4791998863220215,34.9976997375488300,350.2908020019531000,745.0704956054688000,5.4569821357727050,33.7731513977050800,17,3,142,167,64,2147522984,2148177946,2149554390,2147991190,2378,0,-12,7432
1341744605,6469,37.3100013732910160,5.5222001075744630,35.0009002685546900,351.7796936035156000,744.0922241210938000,5.4909877777099610,33.7042198181152340,20,3,155,177,66,2147619382,2148307058,2149902989,2148145297,1968,0,-12,53303
1341744666,6468,34.4199981689453100,5.5689997673034670,35.0038986206054700,352.2005920410156000,742.7039184570312000,5.5392251014709470,33.6634101867675800,21,3,177,190,66,2147727560,2148448777,2150260795,2148324242,1412,0,-12,19717
1341744729,6470,31.4200000762939450,5.7220001220703125,35.0013999938964840,352.7174987792969000,737.8261718750000000,5.7084708213806150,33.5528602600097660,39,3,266,274,65,2147937206,2148729865,2150923898,2148644050,828,0,-12,56346
1341744790,6469,28.2000007629394530,5.9404001235961910,35.0027999877929700,355.4724121093750000,732.2487792968750000,5.9015750885009770,33.3560981750488300,45,3,395,367,65,2148372941,2149316516,2152187661,2149211318,219,0,-12,5067
1341744853,6469,24.4500007629394530,6.3583998680114750,35.0017013549804700,356.8189086914062500,721.4713134765625000,6.2734680175781250,33.1102485656738300,58,3,549,518,65,2149420483,2150707771,2154906317,2150413485,3515,0,-10,29248
1341744914,6470,20.8799991607666000,6.5079002380371090,35.0055007934570300,363.3837890625000000,716.0341186523438000,6.4604678153991700,32.7986793518066400,79,3,593,577,65,2151229969,2152956808,2158700328,2152143130,2881,1,-12,14951
1341744977,6506,17.6499996185302730,6.8357000350952150,35.0059013366699200,368.5436096191406000,706.9271240234375000,6.7727718353271480,32.4702682495117200,91,3,672,654,66,2154217434,2156447044,2163849206,2154562056,2014,1,-12,42714
1341745038,6504,15.0100002288818360,7.2575001716613770,35.0073013305664060,375.3691101074219000,695.0787963867188000,7.1774058341979980,32.0480003356933600,98,3,705,751,66,2158093622,2160701635,2169223908,2157207688,1938,0,-9,43925
1341745101,6470,12.5699996948242190,8.2196998596191400,35.0041007995605500,376.9819030761719000,665.7794189453125000,8.1701641082763670,31.4914608001709000,108,3,707,761,66,2164954336,2168228127,2178488411,2161866372,2364,1,-10,43355
1341745162,6470,11.1300001144409180,9.8950996398925780,35.0229988098144500,370.2000122070312500,617.1693725585938000,9.7941551208496100,30.8943290710449220,110,3,682,725,67,2168019391,2171600818,2182324022,2163936763,2533,0,-11,64733
1341745390,6469,9.0600004196167000,10.7517995834350590,35.0382003784179700,363.2318115234375000,587.4683227539062000,10.7734498977661130,30.6381397247314450,105,3,532,569,61,2181555062,2185820785,2198016278,2172551779,2257,7,-12,21814
1341745453,6471,7.2800002098083500,10.8582000732421880,35.0457000732421900,361.5631103515625000,584.8941040039062000,10.8578901290893550,30.6493797302246100,95,3,477,669,60,2194759785,2199625650,2212497293,2181426079,2790,0,-16,37712
1341745518,6470,4.8000001907348630,10.8565998077392580,35.0453987121582000,361.3858947753906000,584.9210205078125000,10.8570098876953120,30.6551990509033200,99,3,352,598,63,2225595332,2231705951,2244567620,2204453179,1710,1,-5,41997
1341745580,6469,27.0000000000000000,0.0000000000000000,0.0000000000000000,361.2974853515625000,584.4725952148438000,10.8717098236083980,30.6508903503417970,89,3,247,619,60,2263970888,2270923382,2281028676,2239056959,628,4,-4,23763
1341745623,6468,0.8000000119209290,0.0000000000000000,0.0000000000000000,360.9791870117187500,584.2960205078125000,10.8774995803833000,30.6580295562744140,92,3,202,562,63,2295524680,2303292863,2309020753,2278154193,832,-13,-8,21623
